Погода Троицко-Печерск

Хотите узнать прогноз погоды Троицко-Печерск? Тогда Вам сюда: Погода Троицко-Печерск

Поиск расширенной информации на нашем сайте:

Полезная информация:

Новости сайта



02.01.2020
Опубликован Долгосрочный прогноз погоды по городам России и ближнего зарубежья на январь 2020 года.
Карты: Прогноз на январь и февраль 2020 года, Сравнение прогнозируемой аномалии приземной температуры воздуха на январь 2020 года по разным моделям.




Погода Троицко-Печерск - сегодня

Время (UTC), дата Ветер
(°,м/с) 
Видим.   Явления Облачность Т
(°С)
Тd
(°С)
f(%) Тe
(°С)
Pmin
(гПа)
dP
(гПа)
Po
(мм)
O2
(г/м3)
Тmin Tmax R s Состояние
почвы
00 16.01.22 350 (С) 10 км  слаб. снег  10/0 средняя 
[As op]
-15.2 -17.7 81 -17  987.2  0.2  727  312           
03 16.01.22 350 (С) 10 км  слаб. снег  10/0 средняя 
[As op]
-15.7 -18.2 81 -16  988.2  0.8  728  313  -21    0.6  70  равномерный
сухой снег
100% 
06 16.01.22 340 (С) 10 км  слаб. ливневой снег  10/10 300 м кучево-дожд. 
[Cb cap]
-16.2 -18.9 80 -16  989.2  729  314           
09 16.01.22 030 (СВ) 2000 м  снег{ливн. осадки}  н/о 
-16.3 -18.9 80 -16  989.8  0.6  729  314           
12 16.01.22 тихо ()   4000 м  слаб. снег{ливн. осадки}  10/6 300 м средняя 
[Frnb|As op]
-16.7 -19.4 80 -17  990.8  0.9  730  315           
15 16.01.22 тихо ()   4000 м  слаб. снег  10/6 330 м средняя 
[Frnb|As op]
-17.1 -19.7 80 -17  991.7  0.9  730  315    -15.7     
18 16.01.22 тихо ()   10 км  слаб. снег  10/6 420 м средняя 
[Frnb|As op]
-17.3 -19.9 80 -17  991.3  -0.5  730  316           
21 16.01.22 тихо ()   10 км  слаб. ливневой снег  10/4 600 м кучево-дожд., средняя 
[Cb cap|Ac trans]
-16.8 -19.3 81 -17  990.9  -0.4  730  315           
00 17.01.22 270 (З) 10 км  слаб. ливневой снег  10/8 540 м кучево-дожд., средняя 
[Cb cap|Ac trans]
-16.1 -18.6 81 -16  991.1  0.3  730  314           
03 17.01.22 200 (Ю) 10 км  слаб. ливневой снег  10/10 420 м кучево-дожд. 
[Cb cap]
-16 -18.5 81 -16  990.8  -0.3  730  314  -18    0.3  71  равномерный
сухой снег
100% 
06 17.01.22 190 (Ю) 20000 м  {ливн. осадки}  10/10 400 м кучево-дожд. 
[Cb cap]
-15.3 -17.7 82 -18  990.7  -0.1  730  313           
09 17.01.22 190 (Ю) 20000 м    10/10 400 м кучево-дожд. 
[Cb cap]
-14 -16.4 82 -18  990.4  -0.2  730  311           
12 17.01.22 150 (ЮВ) 20000 м    10/10 420 м кучево-дожд. 
[Cb cap]
-13.9 -16.3 82 -16  990.1  -0.3  729  311           
15 17.01.22 160 (Ю) 20000 м  слаб. ливневой снег  10/10 450 м кучево-дожд. 
[Cb cap]
-14.3 -16.7 82 -16  991.3  1.2  730  312    -13.6  0.0     
18 17.01.22 150 (ЮВ) 10 км  слаб. снег{ливн. осадки}  10/0 средняя 
[As op]
-14.1 -16.5 82 -14  990.9  -0.4  730  311           
21 17.01.22 170 (Ю) 4000 м  слаб. снег  10/0 средняя 
[As op]
-12.7 -15 83 -15  991.9  1.1  731  310           
00 18.01.22 160 (Ю) 10 км  слаб. снег  10/0 средняя 
[As op]
-11.6 -13.7 84 -14  992.7  0.8  731  309           
03 18.01.22 170 (Ю) 10 км  слаб. снег  10/0 средняя 
[As op]
-9.8 -11.8 85 -12  992.9  0.4  732  307  -14.4    72  равномерный
сухой снег
100% 
06 18.01.22 190 (Ю) 10 км  слаб. снег  10/0 средняя 
[As op]
-8 -9.8 87 -11  993.7  0.8  732  305           
09 18.01.22 190 (Ю) 20000 м  {снег}  8/0 средняя 
[Ac trans]
-7 -8.8 87 -10  995.1  1.5  733  304           
12 18.01.22 200 (Ю) 10 км  слаб. ливневой снег  10/4 300 м кучево-дожд., средняя 
[Cb cap|Ac As]
-6.2 -7.9 88 -9  996.6  1.6  735  304           
15 18.01.22 200 (Ю) 10 км  слаб. ливневой снег  10/4 300 м кучево-дожд., средняя 
[Cb cap|Ac As]
-6.1 -7.7 88 -9  998.4  1.8  736  304    -6.1  0.3     
18 18.01.22 200 (Ю) 10 км  слаб. ливневой снег  10/5 300 м кучево-дожд., средняя 
[Cb cap|Ac und]
-5.9 -7.6 88 -7  999.9  1.4  737  304           
21 18.01.22 200 (Ю) 10 км  слаб. ливневой снег  10/5 300 м кучево-дожд., средняя 
[Cb cap|Ac und]
-5.7 -7.3 88 -7  1001.7  1.8  738  305           
00 19.01.22 210 (ЮЗ) н/о    н/о 
-6.1 -7.7 88 -6  1003.4  1.6  740  306           
Время (UTC), дата Ветер
(°,м/с) 
Видим.   Явления Облачность Т
(°С)
Тd
(°С)
f(%) Тe
(°С)
Pmin
(гПа)
dP
(гПа)
Po
(мм)
O2
(г/м3)
Тmin Tmax R s Состояние
почвы

Для получения пояснительной информации подведите курсор к названию столбца.

ПОГОДА Троицко-Печерск - архив

Всё, что Вы хотите узнать о погоде Троицко-Печерск - удобно и подробно!

Выберите нужную дату (начиная с 1 января 2019* года) и нажмите кнопку "Найти".
Будут отображены архивные сводки погоды по пункту Троицко-Печерск, начиная с указанной даты.


Отображать данные в формате CSV (для использования в таблицах Excel)


Внимание! Наш архив погоды предназначен исключительно для личного некоммерческого использования в познавательных целях. Если Вам необходимы официальные справки о состоянии погоды (для производственных, юридических, коммерческих и т.п. целей), обращайтесь в органы Росгидромета.

*Примечание: данная дата относится к архиву по метеостанциям СССР (Россия, СНГ, Балтия).
Архив по метеостанциям Зарубежной Европы и Азии (кроме Китая) хранится 10 дней, по другим регионам земного шара (Китай, Африка, Америка, Австралия, Океания) - 1 день.

Троицко-Печерск - район местоположения метеостанции


Название, широта, долгота, высота метеостанции:
Троицко-Печерск 62.7°ш. 56.2°д. 139 м над ур. моря [Российская Федерация]

Дополнительная информация

В oтличие oт бoльшинства пoгoдных сайтoв мы публикуем пoдрoбную метеoинфoрмацию в детальнoм прoфессиoнальнoм фoрмате.

Характеристики температуры и влажнoсти вoздуха измеряются на высoте 2 м в тени вдали oт зданий и деревьев.
Скoрoсть ветра измеряется на высoте 10 м (на урoвне рoста челoвека скoрoсть ветра ниже в 1.5-2 раза). Если метеoстанция нахoдится в гoрoде или в лесу, тo скoрoсть ветра занижена на 2-4 м/с пo сравнению с oткрытым местoм. Скoрoсть ветра над акватoриями крупных рек и oзёр, а также на вершинах хoлмoв на 2-5 м/с выше, чем в oбычных услoвиях.
Атмoсфернoе давление в разных тoчках местнoсти мoжет значительнo oтличаться oт давления на метеoстанции, в зависимoсти oт услoвий рельефа (при пoдъёме на 10 м давление пoнижается примернo на 1 мм рт.ст.).